Tracking 20083 objects as of 12-Dec-2019
HD Live streaming from Space Station
objects crossing your sky now

SCATHA AKM

Track SCATHA AKM now!


NORAD ID: 29000
Int'l Code: 1979-007C
Perigee: 28,157.2 km
Apogee: 42,699.7 km
Inclination: 15.3 °
Period: 1,417.5 minutes
Semi major axis: 41799 km
RCS: 0.003 m2 (small)
Launch date: January 30, 1979
Source: United States (US)
Launch site: AIR FORCE EASTERN TEST RANGE (AFETR)

Note: This is a ROCKET BODY
aabbcc
Your satellite tracking list
Your tracking list is empty




NASA's NSSDC Master Catalog

Two Line Element Set (TLE):
1 29000U 79007C   19345.35201677 -.00000285  00000-0  00000+0 0  9992
2 29000  15.2712 313.6588 1739552  55.3034 315.0411  1.01589181 53756
Source of the keplerian elements: AFSPC